Weather observations for the past three days for
Burbank - Bob Hope Airport
| Date | Time (pdt) | Wind (mph) | Vis. (mi.) | Weather | Sky Cond. | Temperature (ºF) | Relative Humidity | Wind Chill (°F) | Heat Index (°F) | Pressure | Precipitation (in) | ||||||
|---|---|---|---|---|---|---|---|---|---|---|---|---|---|---|---|---|---|
| Air | Dwpt | 6 hour | altimeter (in) | sea level (mb) | 1 hr | 3 hr | 6 hr | ||||||||||
| Max. | Min. | ||||||||||||||||
| 09 | 03:53 | E 5 | 5.00 | Fog/Mist | OVC006 | 59 | 55.9 | 90% | 29.93 | 1012.4 | |||||||
| 09 | 02:53 | E 5 | 5.00 | Fog/Mist | OVC006 | 59 | 55.9 | 90% | 29.94 | 1012.6 | |||||||
| 09 | 01:53 | Calm | 7.00 | Overcast | OVC007 | 59 | 55.9 | 90% | 29.94 | 1012.8 | |||||||
| 09 | 00:53 | S 5 | 9.00 | Fair | CLR | 59 | 55 | 87% | 29.95 | 1013.2 | |||||||
| 08 | 23:53 | SE 6 | 10.00 | Fair | CLR | 60.1 | 55.9 | 86% | 29.96 | 1013.5 | |||||||
| 08 | 22:53 | S 5 | 10.00 | Fair | CLR | 61 | 55.9 | 75 | 61 | 84% | 29.96 | 1013.5 | |||||
| 08 | 21:53 | E 6 | 10.00 | Fair | CLR | 62.1 | 55.9 | 80% | 29.96 | 1013.5 | |||||||
| 08 | 20:53 | S 6 | 10.00 | Fair | CLR | 63 | 55.9 | 78% | 29.95 | 1013.2 | |||||||
| 08 | 19:53 | S 7 | 9.00 | Fair | CLR | 64 | 55.9 | 75% | 29.93 | 1012.5 | |||||||
| 08 | 18:53 | S 9 | 10.00 | Fair | CLR | 66.9 | 57 | 71% | 29.92 | 1012.1 | |||||||
| 08 | 17:53 | S 13 | 10.00 | Fair | CLR | 71.1 | 57 | 61% | 29.91 | 1011.6 | |||||||
| 08 | 16:53 | S 13 | 10.00 | Fair | CLR | 75 | 57 | 78.1 | 64.9 | 54% | 78 | 29.91 | 1011.6 | ||||
| 08 | 15:53 | S 10 | 10.00 | Fair | CLR | 75.9 | 57 | 52% | 78 | 29.92 | 1012.1 | ||||||
| 08 | 14:53 | S 7 | 10.00 | Fair | CLR | 75.9 | 57 | 52% | 78 | 29.95 | 1012.9 | ||||||
| 08 | 13:53 | SE 7 | 10.00 | Fair | CLR | 75.9 | 57 | 52% | 78 | 29.96 | 1013.4 | ||||||
| 08 | 12:53 | Vrbl 5 | 10.00 | Fair | CLR | 73 | 55.9 | 55% | 29.98 | 1014.1 | |||||||
| 08 | 11:53 | SW 6 | 8.00 | Fair | CLR | 69.1 | 55.9 | 63% | 30 | 1014.9 | |||||||
| 08 | 10:53 | Vrbl 5 | 9.00 | A Few Clouds | FEW016 | 66 | 55.9 | 66 | 57.9 | 70% | 30.02 | 1015.5 | |||||
| 08 | 09:53 | Vrbl 5 | 4.00 | Mostly Cloudy with Haze | BKN010 | 62.1 | 55 | 78% | 30.02 | 1015.7 | |||||||
| 08 | 08:53 | Vrbl 3 | 4.00 | Overcast with Haze | OVC009 | 60.1 | 55 | 84% | 30.02 | 1015.6 | |||||||
| 08 | 07:53 | Calm | 4.00 | Fog/Mist | OVC008 | 59 | 55 | 87% | 30.02 | 1015.8 | |||||||
| 08 | 06:53 | Calm | 4.00 | Fog/Mist | OVC009 | 59 | 55 | 87% | 30.02 | 1015.5 | |||||||
| 08 | 05:53 | E 3 | 8.00 | Overcast | OVC009 | 59 | 55 | 87% | 30.01 | 1015.1 | |||||||
| 08 | 04:53 | E 5 | 7.00 | Overcast | OVC008 | 59 | 55 | 60.1 | 57.9 | 87% | 30 | 1014.7 | |||||
| 08 | 03:53 | S 3 | 6.00 | Fog/Mist | OVC008 | 57.9 | 55 | 90% | 29.99 | 1014.5 | |||||||
| 08 | 02:53 | S 5 | 10.00 | Fair | CLR | 57.9 | 55 | 90% | 29.99 | 1014.6 | |||||||
| 08 | 01:53 | Calm | 10.00 | Fair | CLR | 59 | 55 | 87% | 30 | 1014.8 | |||||||
| 08 | 00:53 | Calm | 10.00 | Fair | CLR | 59 | 54 | 83% | 30.01 | 1015.3 | |||||||
| 07 | 23:53 | Calm | 10.00 | Fair | CLR | 59 | 55 | 87% | 30.01 | 1015.2 | |||||||
| 07 | 22:53 | S 6 | 10.00 | Fair | CLR | 60.1 | 55 | 75.9 | 60.1 | 84% | 30 | 1014.9 | |||||
| 07 | 21:53 | SE 10 | 10.00 | Fair | CLR | 63 | 54 | 73% | 29.99 | 1014.6 | |||||||
| 07 | 20:53 | SE 10 | 10.00 | Fair | CLR | 64 | 54 | 70% | 29.97 | 1013.8 | |||||||
| 07 | 19:53 | SE 13 | 10.00 | Fair | CLR | 64.9 | 54 | 68% | 29.95 | 1013.1 | |||||||
| 07 | 18:53 | S 9 | 10.00 | Fair | CLR | 69.1 | 54 | 59% | 29.93 | 1012.4 | |||||||
| 07 | 17:53 | S 12 | 10.00 | Fair | CLR | 73 | 55 | 53% | 29.93 | 1012.4 | |||||||
| 07 | 16:53 | S 12 | 10.00 | Fair | CLR | 75 | 55 | 79 | 72 | 50% | 78 | 29.93 | 1012.3 | ||||
| 07 | 15:53 | S 13 | 10.00 | Fair | CLR | 78.1 | 54 | 43% | 79 | 29.93 | 1012.4 | ||||||
| 07 | 14:53 | S 9 | 10.00 | Fair | CLR | 77 | 55 | 47% | 78 | 29.95 | 1012.9 | ||||||
| 07 | 13:53 | SW 7 | 10.00 | Fair | CLR | 78.1 | 55 | 45% | 79 | 29.96 | 1013.4 | ||||||
| 07 | 12:53 | S 10 | 10.00 | Fair | CLR | 77 | 55 | 47% | 78 | 29.98 | 1014.0 | ||||||
| 07 | 11:53 | SE 5 | 10.00 | Fair | CLR | 75 | 54 | 48% | 78 | 30 | 1014.6 | ||||||
| 07 | 10:53 | Vrbl 6 | 10.00 | Fair | CLR | 72 | 53.1 | 72 | 55.9 | 52% | 30.01 | 1014.9 | |||||
| 07 | 09:53 | Vrbl 3 | 10.00 | Fair | CLR | 68 | 52 | 57% | 30.01 | 1015.3 | |||||||
| 07 | 08:53 | SE 5 | 10.00 | Fair | CLR | 64.9 | 52 | 63% | 30.02 | 1015.6 | |||||||
| 07 | 07:53 | Calm | 10.00 | Fair | CLR | 61 | 52 | 72% | 30.02 | 1015.8 | |||||||
| 07 | 06:53 | Calm | 10.00 | Fair | CLR | 57.9 | 51.1 | 78% | 30.01 | 1015.4 | |||||||
| 07 | 05:53 | Calm | 10.00 | Fair | CLR | 55.9 | 50 | 81% | 30 | 1015.1 | |||||||
| 07 | 04:53 | Calm | 10.00 | Fair | CLR | 57.9 | 51.1 | 61 | 57 | 78% | 30.01 | 1015.0 | |||||
| 07 | 03:53 | Calm | 10.00 | Fair | CLR | 57.9 | 52 | 81% | 30.01 | 1015.2 | |||||||
| 07 | 02:53 | Calm | 10.00 | Fair | CLR | 57.9 | 53.1 | 84% | 30.02 | 1015.5 | |||||||
| 07 | 01:53 | Calm | 10.00 | Fair | CLR | 60.1 | 51.1 | 72% | 30.03 | 1016.0 | |||||||
| 07 | 00:53 | Calm | 10.00 | Fair | CLR | 59 | 53.1 | 81% | 30.04 | 1016.3 | |||||||
| 06 | 23:53 | S 6 | 10.00 | Fair | CLR | 60.1 | 52 | 75% | 30.05 | 1016.5 | |||||||
| 06 | 22:53 | SE 6 | 10.00 | Fair | CLR | 61 | 51.1 | 72 | 61 | 70% | 30.05 | 1016.5 | |||||
| 06 | 21:53 | SE 6 | 10.00 | Fair | CLR | 63 | 51.1 | 65% | 30.04 | 1016.4 | |||||||
| 06 | 20:53 | SE 7 | 10.00 | Fair | CLR | 64 | 51.1 | 63% | 30.03 | 1016.0 | |||||||
| 06 | 19:53 | S 8 | 10.00 | Fair | CLR | 64 | 51.1 | 63% | 30.01 | 1015.4 | |||||||
| 06 | 18:53 | S 12 | 10.00 | Fair | CLR | 68 | 48.9 | 51% | 30 | 1014.8 | |||||||
| 06 | 17:53 | S 10 | 10.00 | Fair | CLR | 70 | 51.1 | 51% | 29.99 | 1014.5 | |||||||
| 06 | 16:53 | SW 9 | 10.00 | Fair | CLR | 72 | 50 | 75 | 64.9 | 46% | 29.98 | 1014.4 | |||||
| 06 | 15:53 | SW 10 | 10.00 | Fair | CLR | 73 | 50 | 44% | 29.99 | 1014.6 | |||||||
| 06 | 14:53 | S 10 | 10.00 | Fair | CLR | 73.9 | 51.1 | 45% | 30.01 | 1015.2 | |||||||
| 06 | 13:53 | S 12 G 17 | 10.00 | Fair | CLR | 72 | 51.1 | 48% | 30.03 | 1015.9 | |||||||
| 06 | 12:53 | Calm | 10.00 | Fair | CLR | 71.1 | 48.9 | 46% | 30.04 | 1016.3 | |||||||
| 06 | 11:53 | Vrbl 5 | 10.00 | Fair | CLR | 69.1 | 48 | 47% | 30.06 | 1017.1 | |||||||
| 06 | 10:53 | S 6 | 10.00 | Fair | CLR | 64.9 | 48.9 | 64.9 | 51.1 | 56% | 30.08 | 1017.5 | |||||
| 06 | 09:53 | S 3 | 10.00 | Fair | CLR | 62.1 | 48.9 | 62% | 30.07 | 1017.5 | |||||||
| 06 | 08:53 | S 5 | 10.00 | Fair | CLR | 60.1 | 50 | 70% | 30.08 | 1017.6 | |||||||
| 06 | 07:53 | Calm | 10.00 | Fair | CLR | 57 | 48 | 72% | 30.08 | 1017.8 | |||||||
| 06 | 06:53 | Calm | 10.00 | Fair | CLR | 53.1 | 45 | 74% | 30.07 | 1017.5 | |||||||
| 06 | 05:53 | Calm | 10.00 | Fair | CLR | 51.1 | 44.1 | 77% | 30.06 | 1017.1 | |||||||
| 06 | 04:53 | Calm | 10.00 | Fair | CLR | 52 | 44.1 | 57.9 | 52 | 75% | 30.05 | 1016.7 | |||||
| Date | Time (pdt) | Wind (mph) | Vis. (mi.) | Weather | Sky Cond. | Air | Dwpt | Max. | Min. | Relative Humidity | Wind Chill (°F) | Heat Index (°F) | altimeter (in) | sea level (mb) | 1 hr | 3 hr | 6 hr |
| 6 hour | |||||||||||||||||
| Temperature (ºF) | Pressure | Precipitation (in) | |||||||||||||||